Cook, MN

2:41 PM CDT on July 23, 2017 (GMT -0500)
Cook Municipal

Weather History for KCQM - February, 2013

Change the Weather History Date:

Friday, February 8, 2013

  Actual Average Record
Temperature  
Mean Temperature 18 °F -  
Max Temperature 23 °F 22 °F 46 °F (1999)
Min Temperature 12 °F 1 °F -27 °F (2014)
Degree Days  
Heating Degree Days 48    
Moisture  
Dew Point 12 °F    
Average Humidity 83    
Maximum Humidity 92    
Minimum Humidity 68    
Precipitation  
Precipitation 0.00 in - - ()
Sea Level Pressure  
Sea Level Pressure 30.26 in    
Wind  
Wind Speed 2 mph (SSE)    
Max Wind Speed 10 mph    
Max Gust Speed -    
Visibility 9 miles    
Events Snow    
Averages and records for this station are not official NWS values.
T = Trace of Precipitation, MM = Missing Value Source: NWS Daily Summary

Daily Weather History Graph

Daily Weather History Graph

Search for Another Location

Airport or City:

Trip Planner

Search our weather history database for the weather conditions in past years. The results will help you decide how hot, cold, wet, or windy it might be!

Date:

Astronomy

Feb. 08, 2013 Rise Set
Actual Time 7:27 AM CST 5:23 PM CST
Civil Twilight 6:55 AM CST 5:55 PM CST
Nautical Twilight 6:18 AM CST 6:32 PM CST
Astronomical Twilight 5:42 AM CST 7:08 PM CST
Moon 6:00 AM CST (2/8) 3:54 PM CST (2/8)
Length of Visible Light 11h 00m
Length of Day
9h 55m
Waning Crescent, 3% of the Moon is Illuminated
Feb 8
Waning Crescent
Feb 10
New
Feb 17
First Quarter
Feb 25
Full
Mar 4
Last Quarter

Hourly Weather History & Observations

Time (CST) Temp. Windchill Dew Point Humidity Pressure Visibility Wind Dir Wind Speed Gust Speed Precip Events Conditions
12:16 AM 14.0 °F - 10.4 °F 86% 30.27 in 10.0 mi Calm Calm - N/A   Overcast
12:37 AM 12.2 °F - 10.4 °F 92% 30.28 in 10.0 mi Calm Calm - N/A   Overcast
12:56 AM 12.2 °F - 10.4 °F 92% 30.28 in 10.0 mi Calm Calm - N/A   Overcast
1:16 AM 12.2 °F - 10.4 °F 92% 30.28 in 10.0 mi Calm Calm - N/A   Overcast
1:37 AM 12.2 °F - 10.4 °F 92% 30.27 in 5.0 mi Calm Calm - N/A Snow Light Snow
1:56 AM 12.2 °F - 10.4 °F 92% 30.28 in 7.0 mi Calm Calm - N/A Snow Light Snow
2:16 AM 12.2 °F - 10.4 °F 92% 30.28 in 10.0 mi Calm Calm - N/A Snow Light Snow
2:37 AM 12.2 °F - 10.4 °F 92% 30.28 in 7.0 mi Calm Calm - N/A Snow Light Snow
2:56 AM 12.2 °F - 10.4 °F 92% 30.28 in 5.0 mi Calm Calm - N/A Snow Light Snow
3:37 AM 12.2 °F - 10.4 °F 92% 30.28 in 7.0 mi Calm Calm - N/A Snow Light Snow
3:56 AM 12.2 °F - 10.4 °F 92% 30.28 in 5.0 mi Calm Calm - N/A Snow Light Snow
4:16 AM 12.2 °F - 10.4 °F 92% 30.28 in 7.0 mi Calm Calm - N/A Snow Light Snow
4:37 AM 12.2 °F - 10.4 °F 92% 30.29 in 5.0 mi Calm Calm - N/A Snow Light Snow
4:56 AM 12.2 °F - 10.4 °F 92% 30.29 in 5.0 mi Calm Calm - N/A Snow Light Snow
5:17 AM 12.2 °F - 10.4 °F 92% 30.29 in 7.0 mi Calm Calm - N/A Snow Light Snow
5:37 AM 12.2 °F - 10.4 °F 92% 30.29 in 7.0 mi Calm Calm - N/A Snow Light Snow
5:56 AM 12.2 °F - 10.4 °F 92% 30.29 in 10.0 mi Calm Calm - N/A Snow Light Snow
6:17 AM 12.2 °F - 10.4 °F 92% 30.30 in 7.0 mi Calm Calm - N/A Snow Light Snow
6:36 AM 12.2 °F - 10.4 °F 92% 30.30 in 10.0 mi Calm Calm - N/A Snow Light Snow
6:56 AM 12.2 °F - 10.4 °F 92% 30.30 in 10.0 mi Calm Calm - N/A Snow Light Snow
7:17 AM 12.2 °F - 10.4 °F 92% 30.30 in 7.0 mi Calm Calm - N/A   Overcast
7:36 AM 12.2 °F - 10.4 °F 92% 30.31 in 10.0 mi Calm Calm - N/A Snow Light Snow
7:56 AM 12.2 °F - 10.4 °F 92% 30.31 in 10.0 mi Calm Calm - N/A Snow Light Snow
8:17 AM 12.2 °F - 10.4 °F 92% 30.31 in 7.0 mi Calm Calm - N/A Snow Light Snow
8:36 AM 12.2 °F - 10.4 °F 92% 30.32 in 2.0 mi Calm Calm - N/A Snow Light Snow
8:56 AM 15.8 °F - 12.2 °F 86% 30.32 in 7.0 mi Calm Calm - N/A Snow Light Snow
9:17 AM 17.6 °F 10.7 °F 12.2 °F 79% 30.32 in 10.0 mi South 4.6 mph - N/A Snow Light Snow
9:36 AM 17.6 °F 10.7 °F 12.2 °F 79% 30.31 in 7.0 mi South 4.6 mph - N/A Snow Light Snow
9:56 AM 17.6 °F 12.3 °F 12.2 °F 79% 30.31 in 10.0 mi South 3.5 mph - N/A Snow Light Snow
10:17 AM 19.4 °F 11.5 °F 14.0 °F 80% 30.31 in 7.0 mi South 5.8 mph - N/A Snow Light Snow
10:56 AM 19.4 °F 11.5 °F 14.0 °F 80% 30.32 in 7.0 mi SSE 5.8 mph - N/A Snow Light Snow
11:17 AM 19.4 °F 12.8 °F 12.2 °F 74% 30.32 in 7.0 mi SSE 4.6 mph - N/A Snow Light Snow
11:36 AM 19.4 °F 11.5 °F 14.0 °F 80% 30.32 in 10.0 mi SSE 5.8 mph - N/A Snow Light Snow
11:57 AM 19.4 °F 10.4 °F 14.0 °F 80% 30.31 in 10.0 mi South 6.9 mph - N/A Snow Light Snow
12:16 PM 21.2 °F 12.6 °F 14.0 °F 74% 30.30 in 10.0 mi SSE 6.9 mph - N/A Snow Light Snow
12:37 PM 21.2 °F 12.6 °F 14.0 °F 74% 30.30 in 10.0 mi SSE 6.9 mph - N/A   Overcast
12:57 PM 21.2 °F 13.6 °F 14.0 °F 74% 30.29 in 10.0 mi SSE 5.8 mph - N/A   Overcast
1:16 PM 21.2 °F 12.6 °F 14.0 °F 74% 30.29 in 10.0 mi SSE 6.9 mph - N/A   Overcast
1:37 PM 21.2 °F 12.6 °F 14.0 °F 74% 30.28 in 10.0 mi SE 6.9 mph - N/A   Overcast
1:57 PM 21.2 °F 11.7 °F 14.0 °F 74% 30.28 in 10.0 mi SSE 8.1 mph - N/A   Overcast
2:16 PM 21.2 °F 11.7 °F 14.0 °F 74% 30.27 in 10.0 mi SSE 8.1 mph - N/A   Overcast
2:37 PM 21.2 °F 13.6 °F 14.0 °F 74% 30.27 in 10.0 mi South 5.8 mph - N/A   Overcast
2:57 PM 21.2 °F 14.9 °F 14.0 °F 74% 30.26 in 10.0 mi South 4.6 mph - N/A   Overcast
3:16 PM 23.0 °F 13.1 °F 14.0 °F 68% 30.26 in 10.0 mi SE 9.2 mph - N/A   Overcast
3:37 PM 21.2 °F 11.7 °F 14.0 °F 74% 30.25 in 10.0 mi SE 8.1 mph - N/A   Overcast
3:56 PM 21.2 °F 12.6 °F 12.2 °F 68% 30.25 in 10.0 mi SSE 6.9 mph - N/A   Scattered Clouds
4:17 PM 21.2 °F 12.6 °F 12.2 °F 68% 30.24 in 10.0 mi SSE 6.9 mph - N/A   Scattered Clouds
4:36 PM 21.2 °F 14.9 °F 12.2 °F 68% 30.23 in 10.0 mi SE 4.6 mph - N/A   Scattered Clouds
4:56 PM 19.4 °F 11.5 °F 12.2 °F 74% 30.23 in 10.0 mi SE 5.8 mph - N/A   Scattered Clouds
5:37 PM 17.6 °F 10.7 °F 12.2 °F 79% 30.22 in 10.0 mi SE 4.6 mph - N/A   Clear
5:57 PM 17.6 °F 8.2 °F 12.2 °F 79% 30.23 in 10.0 mi SE 6.9 mph - N/A   Clear
6:16 PM 17.6 °F 10.7 °F 12.2 °F 79% 30.22 in 10.0 mi SE 4.6 mph - N/A   Scattered Clouds
6:37 PM 15.8 °F 8.6 °F 12.2 °F 86% 30.22 in 10.0 mi SE 4.6 mph - N/A   Scattered Clouds
6:56 PM 15.8 °F 7.2 °F 12.2 °F 86% 30.22 in 10.0 mi SE 5.8 mph - N/A   Clear
7:16 PM 15.8 °F 6.1 °F 12.2 °F 86% 30.22 in 10.0 mi SE 6.9 mph - N/A   Clear
7:37 PM 15.8 °F 8.6 °F 12.2 °F 86% 30.22 in 10.0 mi ESE 4.6 mph - N/A   Clear
7:56 PM 15.8 °F 6.1 °F 12.2 °F 86% 30.21 in 10.0 mi SE 6.9 mph - N/A   Scattered Clouds
8:16 PM 15.8 °F 8.6 °F 10.4 °F 79% 30.20 in 10.0 mi SE 4.6 mph - N/A   Clear
8:36 PM 15.8 °F 5.1 °F 10.4 °F 79% 30.20 in 10.0 mi SE 8.1 mph - N/A   Clear
8:56 PM 14.0 °F 2.9 °F 10.4 °F 86% 30.18 in 10.0 mi SE 8.1 mph - N/A   Clear
9:17 PM 15.8 °F 3.4 °F 10.4 °F 79% 30.19 in 10.0 mi SE 10.4 mph - N/A   Mostly Cloudy
9:36 PM 15.8 °F 5.1 °F 12.2 °F 86% 30.19 in 10.0 mi SE 8.1 mph - N/A   Overcast
9:56 PM 15.8 °F 4.2 °F 12.2 °F 86% 30.18 in 10.0 mi SE 9.2 mph - N/A   Overcast
10:17 PM 15.8 °F 7.2 °F 12.2 °F 86% 30.17 in 10.0 mi SE 5.8 mph - N/A   Overcast
10:36 PM 15.8 °F 8.6 °F 12.2 °F 86% 30.16 in 10.0 mi SE 4.6 mph - N/A   Overcast
10:57 PM 15.8 °F 8.6 °F 10.4 °F 79% 30.17 in 10.0 mi SE 4.6 mph - N/A   Scattered Clouds
11:17 PM 15.8 °F 8.6 °F 10.4 °F 79% 30.16 in 10.0 mi SE 4.6 mph - N/A   Clear
11:36 PM 15.8 °F 6.1 °F 12.2 °F 86% 30.16 in 10.0 mi SE 6.9 mph - N/A   Clear
11:57 PM 15.8 °F 6.1 °F 12.2 °F 86% 30.16 in 10.0 mi SSE 6.9 mph - N/A   Scattered Clouds